KJ6MC Weather Reports


Display with metric or nautical units.
time (UTC)temp
F
wind
direction
speed
MPH
gust
MPH
rain 1hr
in
rain 24hr
in
rain mn
in
humidity
%
barometer
mb
20181217055739 54 126 3.0 6.0 0.01 1.23 1.23 92 1016.7
20181217050738 54 160 3.0 8.0 0.01 1.23 1.23 93 1016.8
20181217045738 54 77 2.0 6.0 0.09 1.23 1.23 94 1016.8
20181217044738 54 94 3.0 5.0 0.09 1.23 1.23 94 1017.0
20181217043738 54 155 1.0 3.0 0.09 1.23 1.23 94 1017.2
20181217042738 54 149 4.0 6.0 0.18 1.23 1.23 95 1017.2
20181217041738 53 150 0.0 3.0 0.17 1.22 1.22 95 1017.2
20181217040737 53 74 3.0 3.0 0.17 1.22 1.22 95 1017.3
20181217035737 53 115 3.0 3.0 0.29 1.22 1.22 95 1017.2
20181217032737 53 128 2.0 5.0 0.34 1.11 1.11 95 1017.6
20181217030736 53 102 2.0 3.0 0.30 1.07 1.07 95 1017.4
20181217025736 53 103 1.0 6.0 0.39 1.04 1.04 95 1017.5
20181217023736 52 211 2.0 6.0 0.31 0.96 0.96 94 1017.4
20181217022736 53 110 1.0 6.0 0.42 0.92 0.92 94 1017.3
20181217015735 53 129 3.0 8.0 0.36 0.76 0.76 93 1016.9
20181217014735 53 201 4.0 8.0 0.31 0.71 0.71 93 1016.9
20181217013735 53 182 3.0 6.0 0.27 0.67 0.67 93 1017.0
20181217012735 53 151 5.0 10.0 0.34 0.64 0.64 92 1017.1
20181217005735 53 159 2.0 3.0 0.27 0.49 0.49 93 1016.9
20181217002734 53 182 0.0 2.0 0.25 0.38 0.38 92 1016.7
20181217001734 53 206 0.0 2.0 0.20 0.33 0.33 92 1016.6
20181217000734 53 157 1.0 2.0 0.18 0.31 0.31 91 1016.5
20181216235734 53 155 0.0 3.0 0.23 0.29 0.29 90 1016.5
20181216234734 53 143 3.0 3.0 0.21 0.27 0.27 90 1016.5
20181216230733 54 161 0.0 2.0 0.12 0.15 0.15 88 1016.1
20181216224733 54 134 1.0 4.0 0.10 0.10 0.10 86 1015.9
20181216222732 55 166 1.0 5.0 0.05 0.05 0.05 81 1015.8
20181216215732 56 180 0.0 8.0 0.02 0.02 0.02 78 1015.8
20181216213732 58 123 3.0 7.0 0.00 0.00 0.00 71 1015.9
20181216204731 58 165 3.0 10.0 0.00 0.00 0.00 72 1016.5
20181216203731 58 154 6.0 7.0 0.00 0.00 0.00 72 1016.9
20181216202731 57 177 3.0 8.0 0.00 0.00 0.00 74 1017.0
20181216201731 57 173 1.0 8.0 0.00 0.00 0.00 75 1017.2
20181216195730 56 160 0.0 5.0 0.00 0.00 0.00 76 1017.3
20181216194730 56 243 2.0 4.0 0.00 0.00 0.00 77 1017.4
20181216192730 55 162 1.0 7.0 0.00 0.00 0.00 78 1017.4
20181216191730 55 186 2.0 7.0 0.00 0.00 0.00 77 1017.3
20181216190730 55 157 1.0 6.0 0.00 0.00 0.00 78 1017.4
20181216183729 54 148 1.0 5.0 0.00 0.00 0.00 80 1017.8
20181216182729 53 147 3.0 4.0 0.00 0.00 0.00 80 1017.7
20181216181729 53 136 2.0 3.0 0.00 0.00 0.00 80 1017.4
20181216174729 52 149 0.0 3.0 0.00 0.00 0.00 79 1018.2
20181216173729 51 256 1.0 3.0 0.00 0.00 0.00 80 1018.5
20181216171728 50 222 0.0 3.0 0.00 0.00 0.00 81 1018.4
20181216170728 49 208 0.0 3.0 0.00 0.00 0.00 81 1018.3
20181216165728 49 144 0.0 5.0 0.00 0.00 0.00 81 1018.1
20181216163728 48 149 1.0 5.0 0.00 0.00 0.00 82 1017.7
20181216162728 47 169 1.0 5.0 0.00 0.00 0.00 84 1017.7
20181216161727 46 162 1.0 3.0 0.00 0.00 0.00 85 1017.7
20181216160727 46 178 1.0 2.0 0.00 0.00 0.00 86 1017.7
20181216151727 45 261 0.0 0.0 0.00 0.00 0.00 85 1017.7
20181216144726 45 261 0.0 1.0 0.00 0.00 0.00 82 1017.6
20181216143726 45 261 0.0 1.0 0.00 0.00 0.00 82 1017.9
20181216141726 45 262 0.0 2.0 0.00 0.00 0.00 80 1017.9
20181216134725 44 179 0.0 2.0 0.00 0.00 0.00 78 1017.6
20181216133725 44 149 1.0 2.0 0.00 0.00 0.00 78 1017.6
20181216130725 45 126 0.0 2.0 0.00 0.00 0.00 77 1017.5
20181216125725 44 115 1.0 3.0 0.00 0.00 0.00 78 1017.5
20181216124724 44 146 1.0 3.0 0.00 0.00 0.00 78 1017.4
20181216123724 44 152 1.0 3.0 0.00 0.00 0.00 78 1017.5
20181216122724 44 135 1.0 3.0 0.00 0.00 0.00 78 1017.8
20181216115724 44 133 2.0 3.0 0.00 0.00 0.00 83 1018.0
20181216114724 43 115 0.0 2.0 0.00 0.00 0.00 86 1018.4
20181216113724 43 127 1.0 2.0 0.00 0.00 0.00 88 1018.4
20181216112723 42 130 0.0 0.0 0.00 0.00 0.00 92 1018.5
20181216102723 43 121 0.0 0.0 0.00 0.00 0.00 91 1018.9
20181216094722 44 121 0.0 0.0 0.00 0.00 0.00 89 1018.7
20181216093722 44 99 0.0 0.0 0.00 0.00 0.00 89 1018.6
20181216091722 44 144 1.0 1.0 0.00 0.00 0.00 90 1018.7
20181216090721 44 168 0.0 1.0 0.00 0.00 0.00 90 1018.8
20181216085721 44 168 0.0 1.0 0.00 0.00 0.00 89 1019.0
20181216083721 45 122 0.0 1.0 0.00 0.00 0.00 89 1019.1
20181216082721 45 113 0.0 0.0 0.00 0.00 0.00 89 1019.1
20181216081721 45 176 0.0 0.0 0.00 0.00 0.00 88 1019.3
20181216074720 46 193 0.0 0.0 0.00 0.00 0.00 87 1019.3
20181216072720 48 238 0.0 2.0 0.00 0.00 0.00 84 1019.3
20181216071720 49 238 0.0 2.0 0.00 0.00 0.00 82 1019.3
20181216070720 49 230 0.0 1.0 0.00 0.00 0.00 81 1019.1
20181216063719 49 157 0.0 3.0 0.00 0.00 0.00 81 1018.7
20181216062719 48 180 0.0 3.0 0.00 0.00 0.00 84 1018.7
20181216061719 47 168 0.0 1.0 0.00 0.00 0.00 86 1018.7
20181216060719 47 167 0.0 0.0 0.00 0.00 0.00 86 1018.6